Regional Weather Roundup
Issued by NWS

Home | Current Version | Previous Version | Graphics & Text | Print | Product List | Glossary On
Versions: 1 2 3 4 5 6 7 8 9 10 11 12 13 14 15 16 17 18 19 20 21 22 23 24 25 26 27 28 29 30 31 32 33 34 35 36 37 38 39 40 41 42 43 44 45 46 47 48 49 50
000
ASUS43 KLOT 311200
RWRIL

ILLINOIS REGIONAL WEATHER ROUNDUP
NATIONAL WEATHER SERVICE CHICAGO/ROMEOVILLE IL
700 AM CDT FRI JUL 31 2015

NOTE: "FAIR" INDICATES FEW OR NO CLOUDS BELOW 12,000 FEET WITH NO
SIGNIFICANT WEATHER AND/OR OBSTRUCTIONS TO VISIBILITY.

* THESE STATIONS ARE NOT UNDER NWS QUALITY CONTROL. THEY ALSO MAY NOT
  REPORT WEATHER SUCH AS PRECIPITATION OR FOG.

ILZ001-002-007-009-015-016-024-311300-
NORTHWEST ILLINOIS

CITY           SKY/WX    TMP DP  RH WIND       PRES   REMARKS
MOLINE         SUNNY     68  64  87 W5        30.07R
6HR MIN TEMP:  65; 6HR MAX TEMP:  69;

STERLING*      SUNNY     68  64  88 W7        30.03R
$$

ILZ003-004-008-010-011-017-018-311300-
NORTH CENTRAL ILLINOIS

CITY           SKY/WX    TMP DP  RH WIND       PRES   REMARKS
ROCKFORD       PTSUNNY   69  63  81 CALM      30.05R
6HR MIN TEMP:  62; 6HR MAX TEMP:  69;

$$

ILZ005-006-012>014-019>023-311300-
NORTHEAST ILLINOIS

CITY           SKY/WX    TMP DP  RH WIND       PRES   REMARKS
CHICAGO-OHARE  MOSUNNY   70  59  68 W9        30.01S
6HR MIN TEMP:  67; 6HR MAX TEMP:  74;

CHICAGO-MIDWAY MOSUNNY   72  59  63 SW8       30.02R
6HR MIN TEMP:  70; 6HR MAX TEMP:  77;

AURORA         SUNNY     65  60  84 SW6       30.04R
6HR MIN TEMP:  59; 6HR MAX TEMP:  65;

WAUKEGAN       MOSUNNY   67  59  75 CALM      30.00R
6HR MIN TEMP:  65; 6HR MAX TEMP:  69;

DUPAGE AIRPORT SUNNY     67  60  78 SW8       30.02S
6HR MIN TEMP:  62; 6HR MAX TEMP:  71;

WHEELING       SUNNY     70  58  65 W3        30.02S
6HR MIN TEMP:  68; 6HR MAX TEMP:  74;

NORTHERLY ISL    N/A     73  57  57 W8          N/A
$$

LMZ740>746-311300-
SOUTHERN LAKE MICHIGAN

STATION/POSITION SKY/WX   TEMP    WIND        PRES    VSBY  WAVE
                          AIR SEA DIR/SP/G                  HT/PER
                          (F)     (DEG/KT/KT) (MB)    (MI)  (FT/S)
HARRISON CRIB              73     260/ 13/ 15   N/A
BURNHAM HARBOR             73     270/  6/  9   N/A
CALUMET HARBOR             69     220/  5/  7   N/A
BURNS HARBOR               72     210/  5/  7 1016.6F
MICHIGAN CITY              71     190/  9/ 10   N/A
MICHIGAN CITY 6N           74 73  280/ 10/ 12   N/A           2/ 4
ST. JOSEPH                 74 74  310/ 12/ 14   N/A           2/ 3
$$

ILZ025>027-034>036-040-047-049-050-058-095>099-311300-
WEST-CENTRAL ILLINOIS

CITY           SKY/WX    TMP DP  RH WIND       PRES   REMARKS
QUINCY         CLEAR     68  64  87 SW5       30.13R
MACOMB*        SUNNY     65  64  96 CALM      30.13R
$$

ILZ028>032-037-038-041>044-048-051>054-059>061-311300-
CENTRAL ILLINOIS

CITY           SKY/WX    TMP DP  RH WIND       PRES   REMARKS
DECATUR        SUNNY     73  65  75 NW5       30.10R
PEORIA         SUNNY     71  63  75 W5        30.09R
6HR MIN TEMP:  70; 6HR MAX TEMP:  73;

SPRINGFIELD    SUNNY     67  64  90 W3        30.11R
6HR MIN TEMP:  63; 6HR MAX TEMP:  69;

TAYLORVILLE    NOT AVBL
$$

ILZ033-039-045-046-055>057-062-063-311300-
EAST-CENTRAL ILLINOIS

CITY           SKY/WX    TMP DP  RH WIND       PRES   REMARKS
CHAMPAIGN      SUNNY     66  64  93 W3        30.10R
MATTOON        SUNNY     68  63  84 W5        30.10R
$$

ILZ079-100>102-311300-
SOUTHWEST ILLINOIS

CITY           SKY/WX    TMP DP  RH WIND       PRES   REMARKS
CAHOKIA*       CLEAR     72  65  78 SW5       30.13R
SPARTA*        SUNNY     68  65  91 W3        30.13S
$$

ILZ064>066-069>071-074>076-080>082-084>086-088>090-092>094-311300-
SOUTH-CENTRAL ILLINOIS

CITY           SKY/WX    TMP DP  RH WIND       PRES   REMARKS
CARBONDALE     SUNNY     69  67  93 CALM      30.12R
6HR MIN TEMP:  66; 6HR MAX TEMP:  69;

MARION         SUNNY     70  66  88 CALM      30.13R
MT. VERNON     SUNNY     72  63  73 CALM      30.12R
SALEM*         SUNNY     70  65  86 W5        30.12R
$$

ILZ067-068-072-073-078-083-087-091-311300-
SOUTHEAST ILLINOIS

CITY           SKY/WX    TMP DP  RH WIND       PRES   REMARKS
LAWRENCEVILLE  SUNNY     69  65  86 NW3       30.09R
HARRISBURG*    SUNNY     66  66 100 CALM      30.12R
ROBINSON*      SUNNY     65  64  96 CALM      30.10R
CARMI*         SUNNY     67  62  82 CALM      30.10R
$$

ABBREVIATIONS USED IN REMARKS
   TC - TEMPERATURE IN CELSIUS
  WCI - WIND CHILL INDEX
   HX - HEAT INDEX
  VSB - VISIBILITY
$$



USA.gov is the U.S. government's official web portal to all federal, state and local government web resources and services.